EST,Max TemperatureF,Mean TemperatureF,Min TemperatureF,Max Dew PointF,MeanDew PointF,Min DewpointF,Max Humidity, Mean Humidity, Min Humidity, Max Sea Level PressureIn, Mean Sea Level PressureIn, Min Sea Level PressureIn, Max VisibilityMiles, Mean VisibilityMiles, Min VisibilityMiles, Max Wind SpeedMPH, Mean Wind SpeedMPH, Max Gust SpeedMPH,PrecipitationIn, CloudCover, Events, WindDirDegrees
2012-11-1,78,66,57,61,57,52,93,73,51,30.06,30.02,29.96,10,10,7,14,6,,0.00,2,,250
2012-11-2,79,66,55,59,51,44,96,64,30,30.12,30.07,30.04,10,9,2,8,5,,0.00,0,,307
2012-11-3,82,68,55,64,57,51,97,75,39,30.16,30.11,30.07,10,8,2,7,1,,0.00,0,,264
2012-11-4,82,70,59,62,59,52,100,81,35,30.14,30.09,30.01,10,5,0,8,1,,0.00,1,Fog,281
2012-11-5,78,70,61,65,60,53,97,78,42,30.03,29.99,29.93,10,6,2,8,3,,0.00,0,,282
2012-11-6,75,68,60,61,58,56,93,78,57,29.96,29.90,29.83,10,9,5,12,3,,0.01,2,Rain,276
2012-11-7,66,60,53,56,47,41,90,67,40,30.02,29.95,29.88,10,10,7,16,10,25,0.00,1,,312
2012-11-8,66,57,48,46,41,35,86,57,31,30.20,30.12,30.02,10,10,10,18,9,,0.00,1,,351
2012-11-9,73,60,48,48,43,39,86,59,29,30.28,30.23,30.19,10,10,10,10,6,,0.00,0,,41
2012-11-10,75,64,53,54,50,46,81,63,40,30.34,30.28,30.25,10,10,10,14,7,,0.00,3,,43
2012-11-11,80,68,55,60,57,53,93,74,45,30.31,30.26,30.24,10,10,10,18,5,25,0.00,2,,67
2012-11-12,82,72,61,65,62,59,97,76,46,30.27,30.21,30.17,10,10,5,13,5,18,0.00,2,,66
2012-11-13,79,70,60,65,61,58,97,79,48,30.20,30.16,30.11,10,8,1,7,2,,0.00,0,,51
2012-11-14,79,70,62,65,63,61,100,91,58,30.20,30.16,30.11,10,6,0,14,6,,0.00,5,Fog,20
2012-11-15,66,63,60,63,61,57,97,91,81,30.17,30.14,30.09,10,7,2,12,6,,0.00,8,,11
2012-11-16,66,62,57,57,55,54,93,82,63,30.19,30.15,30.12,10,10,8,12,9,,0.00,6,,13
2012-11-17,81,70,59,61,58,53,93,79,39,30.18,30.15,30.09,10,9,6,15,9,22,0.00,5,,24
2012-11-18,73,64,54,59,57,51,90,79,53,30.21,30.17,30.13,10,10,9,13,10,,0.00,5,,18
2012-11-19,60,56,51,54,52,50,100,89,75,30.19,30.15,30.10,10,10,6,16,8,17,0.00,7,,360
2012-11-20,75,64,54,55,54,52,93,75,50,30.10,30.06,30.00,10,10,9,13,7,24,0.00,1,,351
2012-11-21,73,64,55,53,49,42,89,65,33,30.12,30.06,30.01,10,10,7,17,8,24,0.00,0,,353
2012-11-22,72,62,48,48,40,31,80,54,26,30.21,30.14,30.09,10,10,10,20,9,30,0.00,0,,6
2012-11-23,73,60,48,50,40,31,77,54,23,30.24,30.17,30.11,10,10,10,13,6,,0.00,0,,334
2012-11-24,75,63,51,56,50,43,97,72,39,30.13,30.09,30.01,10,8,2,13,5,,0.00,0,,294
2012-11-25,72,59,46,45,38,27,86,55,19,30.19,30.14,30.11,10,10,10,8,5,,0.00,0,,358
2012-11-26,77,61,45,59,50,39,90,69,43,30.25,30.19,30.15,10,10,10,8,3,,0.00,1,,85
2012-11-27,78,68,57,62,59,56,100,82,50,30.21,30.16,30.10,10,8,2,8,4,,0.00,1,,180
2012-11-28,73,65,55,60,56,52,100,86,55,30.29,30.20,30.14,10,6,0,14,4,,0.00,2,Fog,8
2012-11-29,75,64,52,56,53,50,97,77,45,30.29,30.26,30.23,10,9,5,16,9,16,0.00,2,,36
2012-11-30,78,66,55,56,53,51,93,67,40,30.28,30.23,30.18,10,10,9,15,7,,0.00,1,,60